TimeCDT,TemperatureF,Dew PointF,Humidity,Sea Level PressureIn,VisibilityMPH,Wind Direction,Wind SpeedMPH,Gust SpeedMPH,PrecipitationIn,Events,Conditions,WindDirDegrees,DateUTC
12:14 AM,66.2,50.0,56,29.93,10.0,West,5.8,-,N/A,,Clear,280,2013-06-16 05:14:00
12:34 AM,66.2,50.0,56,29.93,10.0,West,4.6,-,N/A,,Clear,280,2013-06-16 05:34:00
12:54 AM,64.4,51.8,64,29.93,10.0,West,4.6,-,N/A,,Clear,270,2013-06-16 05:54:00
1:14 AM,64.4,51.8,64,29.93,10.0,West,4.6,-,N/A,,Clear,280,2013-06-16 06:14:00
1:34 AM,62.6,51.8,68,29.93,10.0,West,4.6,-,N/A,,Clear,270,2013-06-16 06:34:00
1:54 AM,62.6,51.8,68,29.93,10.0,West,4.6,-,N/A,,Clear,270,2013-06-16 06:54:00
2:14 AM,62.6,50.0,63,29.93,10.0,West,4.6,-,N/A,,Clear,280,2013-06-16 07:14:00
2:34 AM,60.8,50.0,68,29.93,10.0,WNW,4.6,-,N/A,,Clear,290,2013-06-16 07:34:00
2:54 AM,62.6,51.8,68,29.93,10.0,WNW,5.8,-,N/A,,Clear,290,2013-06-16 07:54:00
3:14 AM,60.8,50.0,68,29.93,10.0,WNW,5.8,-,N/A,,Clear,290,2013-06-16 08:14:00
3:34 AM,60.8,50.0,68,29.93,10.0,WNW,6.9,-,N/A,,Clear,300,2013-06-16 08:34:00
3:54 AM,60.8,50.0,68,29.93,10.0,NW,6.9,-,N/A,,Clear,310,2013-06-16 08:54:00
4:14 AM,60.8,50.0,68,29.94,10.0,WNW,5.8,-,N/A,,Clear,290,2013-06-16 09:14:00
4:34 AM,60.8,50.0,68,29.94,10.0,West,6.9,-,N/A,,Clear,270,2013-06-16 09:34:00
4:54 AM,60.8,50.0,68,29.95,10.0,West,6.9,-,N/A,,Clear,260,2013-06-16 09:54:00
5:14 AM,60.8,50.0,68,29.94,10.0,WNW,6.9,-,N/A,,Clear,300,2013-06-16 10:14:00
5:34 AM,57.2,50.0,77,29.94,10.0,WNW,5.8,-,N/A,,Clear,290,2013-06-16 10:34:00
5:54 AM,59.0,50.0,72,29.95,10.0,WNW,5.8,-,N/A,,Clear,290,2013-06-16 10:54:00
6:14 AM,60.8,50.0,68,29.95,10.0,WNW,6.9,-,N/A,,Clear,300,2013-06-16 11:14:00
6:34 AM,60.8,50.0,68,29.96,10.0,WNW,5.8,-,N/A,,Clear,300,2013-06-16 11:34:00
6:54 AM,60.8,51.8,72,29.96,10.0,WNW,5.8,-,N/A,,Clear,300,2013-06-16 11:54:00
7:14 AM,62.6,50.0,63,29.96,10.0,WNW,5.8,-,N/A,,Clear,300,2013-06-16 12:14:00
7:34 AM,64.4,51.8,64,29.96,10.0,NW,4.6,-,N/A,,Clear,320,2013-06-16 12:34:00
7:54 AM,66.2,51.8,60,29.96,10.0,NW,4.6,-,N/A,,Clear,310,2013-06-16 12:54:00
8:14 AM,68.0,51.8,56,29.96,10.0,NW,4.6,-,N/A,,Clear,310,2013-06-16 13:14:00
8:34 AM,69.8,51.8,53,29.96,10.0,WNW,4.6,-,N/A,,Clear,300,2013-06-16 13:34:00
8:54 AM,71.6,53.6,53,29.96,10.0,NW,3.5,-,N/A,,Clear,310,2013-06-16 13:54:00
9:14 AM,75.2,51.8,44,29.96,10.0,NW,6.9,-,N/A,,Clear,310,2013-06-16 14:14:00
9:34 AM,77.0,50.0,39,29.96,10.0,WNW,5.8,-,N/A,,Clear,300,2013-06-16 14:34:00
9:54 AM,78.8,50.0,36,29.96,10.0,NW,5.8,-,N/A,,Clear,310,2013-06-16 14:54:00
10:14 AM,78.8,48.2,34,29.95,10.0,WNW,6.9,-,N/A,,Clear,290,2013-06-16 15:14:00
10:34 AM,80.6,46.4,30,29.94,10.0,NW,5.8,-,N/A,,Clear,320,2013-06-16 15:34:00
10:54 AM,80.6,44.6,28,29.94,10.0,WNW,8.1,-,N/A,,Clear,300,2013-06-16 15:54:00
11:14 AM,82.4,44.6,26,29.93,10.0,NW,11.5,16.1,N/A,,Clear,310,2013-06-16 16:14:00
11:34 AM,82.4,44.6,26,29.93,10.0,NNW,8.1,-,N/A,,Clear,340,2013-06-16 16:34:00
11:54 AM,82.4,44.6,26,29.93,10.0,NW,10.4,-,N/A,,Clear,310,2013-06-16 16:54:00
12:14 PM,84.2,46.4,27,29.92,10.0,NNW,9.2,18.4,N/A,,Clear,330,2013-06-16 17:14:00
12:34 PM,84.2,44.6,25,29.92,10.0,NNW,12.7,19.6,N/A,,Clear,340,2013-06-16 17:34:00
12:54 PM,84.2,46.4,27,29.92,10.0,NNW,13.8,-,N/A,,Scattered Clouds,330,2013-06-16 17:54:00
1:14 PM,84.2,46.4,27,29.92,10.0,WNW,12.7,21.9,N/A,,Clear,300,2013-06-16 18:14:00
1:34 PM,84.2,48.2,29,29.93,10.0,NNW,13.8,17.3,N/A,,Clear,330,2013-06-16 18:34:00
1:54 PM,84.2,48.2,29,29.93,10.0,NW,15.0,20.7,N/A,,Scattered Clouds,320,2013-06-16 18:54:00
2:14 PM,84.2,48.2,29,29.93,10.0,NW,9.2,16.1,N/A,,Scattered Clouds,320,2013-06-16 19:14:00
2:34 PM,86.0,48.2,27,29.93,10.0,NW,15.0,26.5,N/A,,Scattered Clouds,320,2013-06-16 19:34:00
2:54 PM,86.0,48.2,27,29.92,10.0,NW,17.3,21.9,N/A,,Clear,310,2013-06-16 19:54:00
3:14 PM,84.2,46.4,27,29.91,10.0,NW,10.4,24.2,N/A,,Clear,310,2013-06-16 20:14:00
3:34 PM,84.2,46.4,27,29.91,10.0,NW,13.8,24.2,N/A,,Clear,310,2013-06-16 20:34:00
3:54 PM,84.2,48.2,29,29.91,10.0,WNW,16.1,23.0,N/A,,Clear,300,2013-06-16 20:54:00
4:14 PM,84.2,48.2,29,29.91,10.0,WNW,15.0,19.6,N/A,,Clear,290,2013-06-16 21:14:00
4:34 PM,84.2,51.8,33,29.91,10.0,WNW,16.1,20.7,N/A,,Clear,290,2013-06-16 21:34:00
4:54 PM,82.4,53.6,37,29.91,10.0,NW,15.0,23.0,N/A,Thunderstorm,Scattered Clouds,310,2013-06-16 21:54:00
5:14 PM,80.6,48.2,32,29.90,10.0,NNW,6.9,17.3,N/A,,Scattered Clouds,330,2013-06-16 22:14:00
5:34 PM,80.6,50.0,34,29.90,10.0,North,4.6,-,N/A,,Clear,350,2013-06-16 22:34:00
5:54 PM,80.6,51.8,37,29.90,10.0,NW,4.6,-,N/A,,Clear,320,2013-06-16 22:54:00
6:14 PM,82.4,51.8,35,29.89,10.0,NW,9.2,-,N/A,,Clear,310,2013-06-16 23:14:00
6:34 PM,80.6,51.8,37,29.89,10.0,NW,6.9,-,N/A,,Clear,310,2013-06-16 23:34:00
6:54 PM,80.6,53.6,39,29.89,10.0,NW,6.9,-,N/A,,Clear,310,2013-06-16 23:54:00
7:14 PM,80.6,53.6,39,29.89,10.0,NW,6.9,-,N/A,,Clear,320,2013-06-17 00:14:00
7:34 PM,80.6,55.4,42,29.88,10.0,NW,5.8,-,N/A,,Clear,320,2013-06-17 00:34:00
7:54 PM,80.6,53.6,39,29.88,10.0,NNW,4.6,-,N/A,,Clear,330,2013-06-17 00:54:00
8:14 PM,80.6,55.4,42,29.87,10.0,Calm,Calm,-,N/A,,Clear,0,2013-06-17 01:14:00
8:34 PM,78.8,55.4,44,29.88,10.0,Calm,Calm,-,N/A,,Clear,0,2013-06-17 01:34:00
8:54 PM,78.8,53.6,42,29.88,10.0,WNW,4.6,-,N/A,,Clear,290,2013-06-17 01:54:00
9:14 PM,75.2,53.6,47,29.89,10.0,WNW,5.8,-,N/A,,Clear,290,2013-06-17 02:14:00
9:34 PM,75.2,53.6,47,29.89,10.0,WNW,4.6,-,N/A,,Clear,290,2013-06-17 02:34:00
9:54 PM,75.2,51.8,44,29.90,10.0,WNW,4.6,-,N/A,,Clear,290,2013-06-17 02:54:00
10:14 PM,73.4,51.8,47,29.90,10.0,West,4.6,-,N/A,,Clear,280,2013-06-17 03:14:00
10:34 PM,71.6,51.8,50,29.91,10.0,West,4.6,-,N/A,,Clear,280,2013-06-17 03:34:00
10:54 PM,71.6,51.8,50,29.90,10.0,North,3.5,-,N/A,,Clear,10,2013-06-17 03:54:00
11:14 PM,69.8,51.8,53,29.91,10.0,NW,4.6,-,N/A,,Clear,310,2013-06-17 04:14:00
11:34 PM,69.8,53.6,56,29.92,10.0,West,3.5,-,N/A,,Clear,270,2013-06-17 04:34:00
11:54 PM,66.2,53.6,64,29.92,10.0,Calm,Calm,-,N/A,,Clear,0,2013-06-17 04:54:00